This demonstration page uses our WeatherBlox Daily Observations layout. Learn more.

Left ArrowRight Arrow

47.50024, -111.30081

Hourly Observations for May 23, 2022

Temp ( °F °C ) Dew Point ( °F °C ) Humidity (%) Winds ( mph kmh ) Pressure ( in mb ) Visibility ( mi km ) Precip ( " mm )
12:53 am 00:53 Mostly Cloudy 39 3.9 30 -1.1 70 70 SSW 9 15 30.16 1021 10 16 0.00 0.00
1:53 am 01:53 Cloudy 38 3.3 31 -0.6 76 76 SW 9 15 30.15 1021 10 16 0.00 0.00
2:53 am 02:53 Partly Cloudy 36 2.2 29 -1.7 76 76 SW 10 17 30.15 1021 10 16 0.00 0.00
3:53 am 03:53 Mostly Clear 39 3.9 30 -1.1 70 70 SSW 10 17 30.13 1020 10 16 0.00 0.00
4:53 am 04:53 Cloudy 40 4.4 30 -1.1 68 68 SSW 10 17 30.11 1020 10 16 0.00 0.00
5:53 am 05:53 Partly Cloudy 39 3.9 30 -1.1 70 70 SSW 12 19 30.12 1020 10 16 0.00 0.00
6:53 am 06:53 Sunny 44 6.7 31 -0.6 60 60 SSW 10 17 30.11 1020 10 16 0.00 0.00
7:53 am 07:53 Sunny 49 9.4 30 -1.1 48 48 SSW 13 20 30.10 1019 10 16 0.00 0.00
8:53 am 08:53 Sunny 53 11.7 32 0 45 45 SSW 12 19 30.10 1019 10 16 0.00 0.00
9:53 am 09:53 Sunny 57 13.9 28 -2.2 33 33 SW 10 17 30.09 1019 10 16 0.00 0.00
10:53 am 10:53 Sunny 60 15.6 28 -2.2 30 30 SSW 9 15 30.07 1018 10 16 0.00 0.00
11:53 am 11:53 Mostly Cloudy 60 15.6 25 -3.9 26 26 SW 8 13 30.05 1018 10 16 0.00 0.00
12:53 pm 12:53 Cloudy 59 15 24 -4.4 26 26 undefined N/A 30.07 1018 10 16 0.00 0.00
1:53 pm 13:53 Cloudy 60 15.6 26 -3.3 27 27 SSW 9 15 30.05 1018 10 16 0.00 0.00
2:53 pm 14:53 Cloudy 61 16.1 26 -3.3 26 26 VRB 5 7 30.04 1017 10 16 0.00 0.00
3:53 pm 15:53 Cloudy 61 16.1 27 -2.8 27 27 SW 14 22 30.02 1017 10 16 0.00 0.00
4:53 pm 16:53 Cloudy 63 17.2 27 -2.8 26 26 SW 14 22 29.99 1016 10 16 0.00 0.00
5:53 pm 17:53 Mostly Cloudy 61 16.1 28 -2.2 29 29 SSW 16 26 30.00 1016 10 16 0.00 0.00
6:53 pm 18:53 Mostly Cloudy 60 15.6 28 -2.2 30 30 SW 13 20 29.97 1015 10 16 0.00 0.00
7:53 pm 19:53 Mostly Sunny 59 15 27 -2.8 29 29 SW 6 9 29.96 1015 10 16 0.00 0.00
8:53 pm 20:53 Sunny 50 10 31 -0.6 48 48 SSW 8 13 29.97 1015 10 16 0.00 0.00
9:53 pm 21:53 Cloudy 48 8.9 31 -0.6 52 52 SSW 9 15 29.98 1015 10 16 0.00 0.00
10:53 pm 22:53 Clear 43 6.1 31 -0.6 63 63 SSW 9 15 29.98 1015 10 16 0.00 0.00
11:53 pm 23:53 Clear 42 5.6 31 -0.6 65 65 SSW 10 17 29.98 1015 10 16 0.00 0.00

Powered by AerisWeather